Lid_Strength_Index
2 2 1 1 1 1 1 1 1 1 1 1 1 1 2 2 4 7 8 5 3 1 2 7 8 8 7 8 7 7 8 9 10 11 11 12 12 12 12 12 12 11 11 11 9
1 1 1 1 1 1 1 1 1 1 1 1 1 1 2 2 8 9 6 2 2 2 7 8 8 8 8 9 8 7 8 10 11 11 11 12 12 12 12 12 12 12 11 10 10
1 1 1 1 1 1 2 1 1 1 1 1 1 1 1 5 8 9 3 2 3 6 8 9 9 9 9 9 10 11 10 12 13 12 12 12 13 12 12 12 11 11 11 10 10
1 1 1 1 2 2 2 1 2 1 1 1 1 1 2 8 10 8 3 4 5 8 8 9 9 9 10 11 12 11 13 13 13 13 13 13 12 13 12 11 11 10 10 10 10
1 1 2 2 2 2 2 2 2 1 1 1 1 0 6 7 9 8 5 7 8 9 10 9 9 10 11 12 12 12 13 13 14 14 14 14 13 13 13 11 12 12 11 10 10
1 2 2 2 2 2 2 2 2 1 1 1 1 2 6 9 8 8 9 8 9 8 9 9 10 9 11 12 12 12 13 13 13 13 13 14 13 14 11 11 12 12 11 10 10
1 2 2 2 2 2 2 2 2 2 1 2 1 7 6 8 8 7 8 9 9 9 9 10 9 9 10 11 12 12 12 12 12 12 13 13 12 13 10 13 12 12 11 11 10
2 2 2 2 2 2 2 2 2 1 1 2 2 6 8 8 7 7 7 8 8 8 9 9 8 10 11 11 11 12 11 11 13 12 13 12 10 11 12 12 12 12 12 11 11
2 2 2 2 2 2 2 3 2 3 3 3 5 6 8 6 8 8 8 9 8 8 8 9 9 10 10 10 10 10 11 12 12 14 14 13 11 11 12 13 12 12 12 12 11
2 2 3 3 2 2 3 3 2 3 5 6 7 6 7 9 8 8 8 9 9 9 8 8 9 9 11 10 12 13 12 12 12 13 14 13 12 10 11 13 12 12 12 12 12
2 2 3 2 2 4 4 5 6 5 7 9 10 10 9 8 9 7 9 9 8 8 10 10 9 12 14 14 14 14 14 14 12 15 15 12 12 11 10 11 11 11 11 11 12
2 2 3 3 3 6 5 7 9 8 9 10 10 9 10 10 9 7 7 8 8 10 10 9 12 14 15 15 15 14 14 13 13 15 15 13 14 12 12 12 12 12 11 12 12
3 3 3 4 5 6 7 9 8 8 7 9 9 9 9 8 10 9 9 10 10 10 11 10 14 15 15 15 14 13 14 15 16 15 15 16 13 14 14 14 14 13 12 12 12
3 3 4 4 5 8 9 9 8 8 8 10 9 9 8 9 10 9 9 10 10 11 12 12 14 15 14 15 15 14 16 17 17 17 15 16 17 13 14 15 15 14 14 13 12
3 3 5 5 7 9 10 8 7 6 16 10 9 7 8 9 10 9 9 8 10 11 11 13 14 14 14 15 15 13 16 16 17 18 19 17 17 12 15 16 15 14 13 13 12
3 4 6 6 6 9 8 7 6 9 15 11 10 11 10 10 10 9 9 8 10 11 12 14 15 15 15 15 15 15 15 17 17 17 19 19 17 12 13 15 15 15 14 13 13
3 5 6 8 7 8 7 5 9 12 11 12 12 11 12 11 11 11 12 12 10 12 12 12 14 15 15 14 14 14 13 18 19 20 18 19 18 13 13 14 14 14 14 13 13
4 6 7 7 7 6 5 7 12 13 12 12 12 12 12 12 12 11 12 11 14 12 11 13 13 14 16 15 15 16 15 16 21 19 17 19 16 12 14 15 15 14 13 12 11
5 5 4 5 7 5 6 10 11 12 12 13 12 13 13 12 13 12 12 12 13 14 14 13 13 16 17 16 16 15 14 17 18 23 19 15 14 14 15 16 15 13 13 12 11
4 5 5 6 6 6 7 11 12 13 13 13 13 12 13 13 12 12 12 12 14 16 15 13 15 15 17 16 16 15 16 16 16 20 20 16 17 14 14 16 15 14 13 12 11
5 6 6 6 7 7 10 11 12 14 13 13 12 13 13 13 13 12 12 13 14 16 15 14 13 14 16 15 14 16 16 18 18 17 19 19 16 12 13 14 14 13 12 12 11
6 8 6 7 8 12 11 12 12 13 13 13 13 13 13 13 13 13 12 12 14 14 13 15 13 15 13 20 21 18 15 15 16 17 18 18 17 14 14 15 15 14 13 11 11
7 8 5 7 9 12 13 13 13 13 13 13 13 13 13 13 13 13 12 14 14 14 14 14 13 16 15 19 20 18 17 17 18 16 17 18 16 14 15 15 15 14 12 12 11
6 8 6 8 11 10 11 12 12 13 13 13 14 14 14 14 14 14 13 14 15 14 13 13 13 14 17 14 12 17 18 18 17 17 15 15 15 13 12 13 13 13 13 13 13
8 10 10 10 9 10 10 12 12 12 14 14 14 14 14 14 14 14 14 14 15 14 13 14 17 14 13 12 13 14 15 15 19 16 17 15 15 13 13 14 13 15 14 13 13
6 7 9 11 11 11 11 12 12 12 12 14 15 13 14 14 11 12 11 10 11 15 15 16 16 15 17 14 15 17 16 16 15 15 16 16 16 13 14 16 14 14 15 15 14
8 8 7 11 11 10 10 11 11 11 10 11 12 12 13 12 10 10 10 10 10 14 16 18 18 18 17 16 16 18 17 16 16 18 15 17 13 16 14 14 13 13 13 13 13